Tracking 29892 objects as of 21-Nov-2024
HD Live streaming from Space Station
objects crossing your sky now

STARLINK-30495

Track STARLINK-30495 now!
10-day predictions
STARLINK-30495 is classified as:


NORAD ID: 57968
Int'l Code: 2023-151E
Perigee: 565.5 km
Apogee: 566.9 km
Inclination: 43.0 °
Period: 95.8 minutes
Semi major axis: 6937 km
RCS: Unknown
Launch date: September 30, 2023
Source: United States (US)
Launch site: AIR FORCE EASTERN TEST RANGE (AFETR)
Your satellite tracking list
Your tracking list is empty




NASA's NSSDC Master Catalog

Two Line Element Set (TLE):
1 57968U 23151E   24325.64709433  .00000668  00000-0  64501-4 0  9999
2 57968  43.0023  34.7477 0001066 253.3597 106.7129 15.02545155 64423
Source of the keplerian elements: AFSPC